Location: Alma
(38.7220°N, 88.9090°W)
Time: 07:15:44
(UTC-05:00)

N. Korean satellite - Visible Passes

Search period start: 20 October 2019 00:00
Search period end: 30 October 2019 00:00
Orbit: 455 x 508 km, 97.2° (Epoch: 19 October)

Date Brightness Start Highest point End Pass type
(mag) Time Alt. Az. Time Alt. Az. Time Alt. Az.
20 Oct 9.4 06:08:26 10° NE 06:11:22 23° E 06:14:19 10° SSE visible
21 Oct 10.4 05:44:48 10° ENE 05:45:55 11° E 05:47:01 10° ESE visible
22 Oct 9.9 18:59:23 10° SW 19:01:34 16° W 19:03:46 10° NW visible
23 Oct 8.3 06:25:28 10° NNE 06:28:55 39° E 06:32:22 10° SSE visible
23 Oct 8.5 18:32:59 10° SSW 18:36:08 34° W 18:39:19 10° NNW visible
24 Oct 9.8 06:00:51 10° NE 06:03:30 19° E 06:06:10 10° SE visible
26 Oct 7.0 06:42:43 10° NNE 06:46:23 70° E 06:50:04 10° S visible
26 Oct 9.6 18:51:02 10° SW 18:53:38 20° W 18:56:16 10° NW visible
27 Oct 8.8 06:17:43 10° NNE 06:21:02 31° E 06:24:21 10° SSE visible
27 Oct 7.9 18:24:55 10° S 18:28:12 44° W 18:31:34 10° NNW visible
28 Oct 10.1 05:53:22 10° NE 05:55:35 15° E 05:57:49 10° SE visible
29 Oct 10.2 19:09:45 10° WSW 19:11:10 12° W 19:12:35 10° WNW visible
